Location: Aufkirchen
(47.9603°N, 11.3653°E)
Time: 16:52:18
(UTC+01:00)

Courier 1B Rocket - All Passes

Search period start: 24 November 2020 00:00
Search period end: 04 December 2020 00:00
Orbit: 920 x 1202 km, 28.2° (Epoch: 24 November)

Date Brightness Start Highest point End Pass type
(mag) Time Alt. Az. Time Alt. Az. Time Alt. Az.
24 Nov - 08:10:20 10° SSW 08:13:18 13° S 08:16:13 10° SE daylight
24 Nov - 10:01:55 10° SW 10:05:29 14° S 10:08:57 10° SSE daylight
25 Nov - 07:10:42 10° S 07:12:34 11° SSE 07:14:25 10° SSE daylight
25 Nov - 09:00:54 10° SSW 09:04:46 15° S 09:08:32 10° SSE daylight
25 Nov - 10:54:39 10° SSW 10:56:55 12° SSW 10:59:07 10° S daylight
26 Nov - 08:00:09 10° SSW 08:04:01 15° S 08:07:48 10° SE daylight
26 Nov - 09:52:48 10° SW 09:56:13 14° S 09:59:35 10° SSE daylight
27 Nov - 06:59:46 10° SSW 07:03:15 14° S 07:06:41 10° SE visible
27 Nov - 08:51:28 10° SW 08:55:30 15° S 08:59:26 10° SSE daylight
28 Nov - 05:59:59 10° S 06:02:29 12° SSE 06:04:58 10° SE visible
28 Nov - 07:50:27 10° SSW 07:54:44 16° S 07:58:55 10° SE daylight
28 Nov - 09:44:04 10° SW 09:46:56 12° SSW 09:49:45 10° S daylight
29 Nov - 06:49:44 10° SSW 06:53:56 16° S 06:58:05 10° SE visible
29 Nov - 08:42:20 10° SW 08:46:12 15° S 08:50:00 10° SSE daylight
30 Nov - 05:49:22 10° SSW 05:53:08 14° SSE 05:56:53 10° SE visible
30 Nov - 07:41:04 10° SW 07:45:26 16° S 07:49:43 10° SSE daylight
30 Nov - 09:36:20 10° SSW 09:37:35 10° SSW 09:38:50 10° S daylight
01 Dec - 04:49:36 10° S 04:52:21 12° SSE 04:55:07 10° SE visible
01 Dec - 06:40:06 10° SW 06:44:37 17° S 06:49:05 10° SE visible
01 Dec - 08:33:35 10° SW 08:36:53 13° SSW 08:40:07 10° SSE daylight
02 Dec - 05:39:27 10° SSW 05:43:49 16° S 05:48:09 10° SE visible
02 Dec - 07:31:58 10° SW 07:36:06 15° S 07:40:11 10° SSE daylight
03 Dec - 04:39:10 10° SSW 04:43:00 14° SSE 04:46:51 10° SE visible
03 Dec - 06:30:47 10° SW 06:35:18 16° S 06:39:47 10° SSE visible
03 Dec - 08:25:38 10° SSW 08:27:31 11° SSW 08:29:23 10° S daylight
